Location: Rounton
(54.4000°N, 1.3500°W)
Time: 07:54:02
(UTC+00:00)

Vanguard 1 Rocket - Pass Details

Date: 01 December 2021
Orbit: 651 x 4224 km, 34.3° (Epoch: 19 January)

Event Time Altitude Azimuth Distance (km) Brightness Sun altitude
Rises 09:40:30 0° 274° (W) 7,316 11.7 8.5°
Reaches altitude 10° 09:46:57 10° 261° (W) 6,768 11.6 9.0°
Maximum altitude 10:01:50 22° 222° (SW) 6,399 12.1 10.0°
Drops below altitude 10° 10:17:56 10° 183° (S) 7,243 13.4 11.0°
Sets 10:25:29 0° 170° (S) 7,929 14.1 11.4°
